Mount Pocono, PA

12:28 PM EDT on September 25, 2016 (GMT -0400)
Pocono Mountains Municipal

Weather History for KMPO - December, 2013

Change the Weather History Date:

Friday, December 20, 2013

  Actual Average Record
Temperature  
Mean Temperature 42 °F 26 °F  
Max Temperature 52 °F 33 °F 58 °F (1988)
Min Temperature 32 °F 20 °F -12 °F (1942)
Degree Days  
Heating Degree Days 23 39  
Month to date heating degree days 761 716  
Since 1 July heating degree days 2373 2295  
Cooling Degree Days 0 0  
Month to date cooling degree days 0 0  
Year to date cooling degree days 467 314  
Moisture  
Dew Point 27 °F    
Average Humidity 57    
Maximum Humidity 78    
Minimum Humidity 35    
Precipitation  
Precipitation T in 0.13 in 1.50 in (1939)
Month to date precipitation 1.45 2.64  
Year to date precipitation 43.03 47.55  
Sea Level Pressure  
Sea Level Pressure 30.00 in    
Wind  
Wind Speed 9 mph (WSW)    
Max Wind Speed 17 mph    
Max Gust Speed 24 mph    
Visibility 10 miles    
Events Rain    
T = Trace of Precipitation, MM = Missing Value Source: NWS Daily Summary

Daily Weather History Graph

Daily Weather History Graph

Search for Another Location

Airport or City:

Trip Planner

Search our weather history database for the weather conditions in past years. The results will help you decide how hot, cold, wet, or windy it might be!

Date:

Astronomy

Dec. 20, 2013 Rise Set
Actual Time 7:23 AM EST 4:35 PM EST
Civil Twilight 6:51 AM EST 5:06 PM EST
Nautical Twilight 6:17 AM EST 5:41 PM EST
Astronomical Twilight 5:43 AM EST 6:15 PM EST
Moon 7:55 PM EST (12/20) 9:14 AM EST (12/20)
Length of Visible Light 10h 15m
Length of Day
9h 12m
Waning Gibbous, 90% of the Moon is Illuminated
Dec 20
Waning Gibbous
Dec 25
Last Quarter
Jan 1
New
Jan 7
First Quarter
Jan 15
Full

Hourly Weather History & Observations

Time (EST) Temp. Windchill Dew Point Humidity Pressure Visibility Wind Dir Wind Speed Gust Speed Precip Events Conditions
12:53 AM 32.0 °F - 27.0 °F 82% 30.09 in 10.0 mi Calm Calm - N/A   Clear
1:53 AM 35.1 °F - 28.0 °F 76% 30.07 in 10.0 mi Calm Calm - N/A   Clear
2:53 AM 42.1 °F 37.1 °F 27.0 °F 55% 30.07 in 10.0 mi WSW 8.1 mph - N/A   Clear
3:53 AM 45.0 °F 39.7 °F 25.0 °F 46% 30.05 in 10.0 mi West 10.4 mph - N/A   Clear
4:53 AM 44.1 °F 40.8 °F 25.0 °F 47% 30.04 in 10.0 mi West 5.8 mph - N/A   Clear
5:53 AM 44.1 °F 41.5 °F 24.1 °F 45% 30.05 in 10.0 mi WSW 4.6 mph - N/A   Clear
6:53 AM 44.1 °F 42.5 °F 24.1 °F 45% 30.05 in 10.0 mi West 3.5 mph - N/A   Mostly Cloudy
7:53 AM 44.1 °F - 24.1 °F 45% 30.05 in 10.0 mi Calm Calm - N/A   Partly Cloudy
8:53 AM 45.0 °F 41.8 °F 25.0 °F 46% 30.04 in 10.0 mi WSW 5.8 mph - N/A   Clear
9:53 AM 48.9 °F - 23.0 °F 36% 30.03 in 10.0 mi WSW 11.5 mph 18.4 mph N/A   Partly Cloudy
10:53 AM 52.0 °F - 25.0 °F 35% 30.01 in 10.0 mi WSW 11.5 mph 20.7 mph N/A   Clear
11:53 AM 48.9 °F - 27.0 °F 43% 30.00 in 10.0 mi WSW 11.5 mph - N/A   Overcast
12:53 PM 48.0 °F - 28.0 °F 46% 29.99 in 10.0 mi WSW 10.4 mph - N/A   Overcast
1:04 PM 48.0 °F - 28.0 °F 46% 29.95 in 10.0 mi WSW 13.8 mph - N/A   Overcast
1:37 PM 48.0 °F - 28.0 °F 46% 29.94 in 10.0 mi WSW 12.7 mph - N/A   Overcast
1:53 PM 48.0 °F - 27.0 °F 44% 29.97 in 10.0 mi WSW 13.8 mph - N/A   Overcast
2:53 PM 48.9 °F - 25.0 °F 39% 29.95 in 10.0 mi WSW 11.5 mph - N/A   Overcast
3:53 PM 48.9 °F - 27.0 °F 43% 29.95 in 10.0 mi WSW 11.5 mph - N/A   Overcast
4:53 PM 46.9 °F - 28.9 °F 50% 29.96 in 10.0 mi WSW 11.5 mph - 0.00 in Rain Light Rain
5:53 PM 45.0 °F 40.6 °F 28.0 °F 52% 29.96 in 10.0 mi WSW 8.1 mph - 0.00 in   Clear
6:53 PM 44.1 °F 39.5 °F 26.1 °F 49% 29.97 in 10.0 mi West 8.1 mph - N/A   Clear
7:53 PM 44.1 °F 40.1 °F 26.1 °F 49% 29.98 in 10.0 mi WSW 6.9 mph - N/A   Mostly Cloudy
8:10 PM 45.0 °F 39.7 °F 26.1 °F 48% 29.95 in 10.0 mi WSW 10.4 mph 17.3 mph N/A   Overcast
8:53 PM 45.0 °F 39.7 °F 26.1 °F 48% 29.97 in 10.0 mi WSW 10.4 mph - N/A   Clear
9:53 PM 46.0 °F 40.2 °F 27.0 °F 47% 29.97 in 10.0 mi West 12.7 mph - N/A   Overcast
10:53 PM 45.0 °F 38.5 °F 28.9 °F 53% 29.96 in 10.0 mi West 13.8 mph 24.2 mph 0.00 in   Overcast
11:14 PM 45.0 °F 38.5 °F 28.9 °F 53% 29.95 in 10.0 mi West 13.8 mph - N/A   Overcast
11:53 PM 45.0 °F 38.9 °F 30.9 °F 58% 29.96 in 10.0 mi West 12.7 mph - N/A   Overcast